Weather in Sivakovka

Russia / Primorsky Krai     44°28′45″N   132°22′10″E
temp.,
°C
wind,
m/s
gust,
m/s
humid.,
%
clouds,
%
prec.,
mm/h
press.,
hPa
HPBL,
m
22 january, fri
fri2201:00−14nne349366 0.0 102381
04:00−14nne379083 0.0 1023176
07:00−15nne3690100 0.0 1024178
10:00−17ne349290 0.0 102677
13:00−14ne238740 0.0 1026234
16:00−14ene128942 0.0 1026130
19:00−18nne01893 0.0 102820
22:00−18wsw12841 0.0 102920
23 january, sat
sat2301:00−18ssw11820 0.0 103020
04:00−19ssw11860 0.0 103020
07:00−20ene01890 0.0 103120
10:00−18wsw00880 0.0 103220
13:00−14sw00840 0.0 1030160
16:00−13e11860 0.0 102983
19:00−17se11820 0.0 102920
22:00−17ssw11820 0.0 103020
24 january, sun
sun2401:00−17ssw22780 0.0 103020
04:00−16ssw33830 0.0 102922
07:00−16ssw23830 0.0 102820
10:00−15ssw22820 0.0 103023
13:00−9wsw12780 0.0 1029215
16:00−8ne11870 0.0 102848
19:00−13n11830 0.0 103021
22:00−14wnw11790 0.0 103120
25 january, mon
mon2501:00−15w01760 0.0 103120
04:00−15n11760 0.0 103220
07:00−16nw00820 0.0 103120
10:00−14nne11840 0.0 103220
13:00−10nne00800 0.0 1030137
16:00−9ene22870 0.0 102796
19:00−13nne008533 0.0 102621
22:00−11sw239067 0.0 102621
26 january, tue
tue2601:00−1s6159093 0.0 1023732
04:00+1s8169097 0.0 1022816
07:00+1ssw81597100 0.8 1018703
10:00+2ssw81497100 1.7 1017494
13:00+1sw51098100 0.0 1015372
16:00+1sw379183 0.0 1015172
19:00−4wsw58650 0.0 1016121
22:00−8w348011 0.0 101832